M I D A S
Marine Information and Data Acquisition System
Tripno 2197 of the Zeeleeuw from 2011-10-13 07:27:03 to 2011-10-13 12:12:58
Back to CruiseResearch ActivitiesStationsMapUnderway DataData graphs

EquipmentUnitsComments
TimeDGPSUTC
LatitudeDGPSDM.mWGS84
LongitudeDGPSDM.mWGS84
SpeedMeteo Stationm/sRelative wind speed
DirectionMeteo StationdegRelative wind direction
TemperatureMeteo Stationdeg CelciusAir temperature
PressureMeteo StationPaAtmospheric pressure
HumidityMeteo Station%Relative humidity
Missing or incorrect values are displayed as -999
Metereological data collected by the RV Zeeleeuw from 2011-10-13 07:23:24 to 2011-10-13 12:28:02
Time Latitude Longitude Speed Direction Temperature Pressure Humidity
2011-10-13 07:24 51°13.657 2°55.911 -999 306 12.4 102760 52
2011-10-13 07:25 51°13.682 2°55.809 -999 310 12.5 102760 52
2011-10-13 07:26 51°13.697 2°55.74 0.1 306 12.5 102770 52
2011-10-13 07:27 51°13.703 2°55.751 0.1 334 12.5 102770 52
2011-10-13 07:28 51°13.694 2°55.736 2 358 12.4 102770 51
2011-10-13 07:29 51°13.744 2°55.707 -999 2 12.3 102770 51
2011-10-13 07:30 51°13.824 2°55.646 2.9 345 12.4 102770 51
2011-10-13 07:31 51°13.92 2°55.593 4.6 350 12.4 102770 52
2011-10-13 07:32 51°14.033 2°55.529 4.7 350 12.4 102780 51
2011-10-13 07:33 51°14.149 2°55.427 4.6 351 12.4 102780 52
2011-10-13 07:34 51°14.261 2°55.314 5.7 -999 12.4 102780 52
2011-10-13 07:35 51°14.38 2°55.191 5.7 1 12.4 102770 51
2011-10-13 07:36 51°14.509 2°55.053 5.6 2 12.4 102780 50
2011-10-13 07:37 51°14.651 2°54.87 8.9 356 12.4 102780 50
2011-10-13 07:38 51°14.818 2°54.674 9.4 358 12.4 102770 50
2011-10-13 07:39 51°14.988 2°54.512 7.2 353 12.5 102780 50
2011-10-13 07:40 51°15.16 2°54.358 10.6 352 12.7 102780 50
2011-10-13 07:41 51°15.344 2°54.322 12.5 348 12.7 102780 49
2011-10-13 07:42 51°15.529 2°54.354 9.5 350 12.6 102770 48
2011-10-13 07:43 51°15.718 2°54.324 8.7 354 12.7 102770 49
2011-10-13 07:44 51°15.909 2°54.282 9.7 355 12.6 102780 48
2011-10-13 07:45 51°16.092 2°54.235 7.3 357 12.6 102780 48
2011-10-13 07:46 51°16.209 2°54.184 4.5 4 12.8 102790 50
2011-10-13 07:47 51°16.261 2°54.189 6.5 346 12.8 102790 48
2011-10-13 07:48 51°16.262 2°54.234 6.1 326 12.8 102790 48
2011-10-13 07:49 51°16.247 2°54.224 5.7 37 12.8 102790 48
2011-10-13 07:50 51°16.23 2°54.196 5.7 238 12.7 102800 47
2011-10-13 07:51 51°16.213 2°54.165 6.5 249 12.8 102810 48
2011-10-13 07:52 51°16.195 2°54.133 4.9 262 12.8 102810 48
2011-10-13 07:53 51°16.177 2°54.1 5.8 256 12.9 102810 48
2011-10-13 07:54 51°16.159 2°54.067 4.7 265 12.9 102810 47
2011-10-13 07:55 51°16.141 2°54.035 6.3 259 12.9 102820 49
2011-10-13 07:56 51°16.123 2°54.003 5.1 259 12.8 102820 47
2011-10-13 07:57 51°16.104 2°53.971 6 260 12.8 102820 48
2011-10-13 07:58 51°16.073 2°53.941 5.1 255 12.8 102830 48
2011-10-13 07:59 51°15.964 2°53.889 5.7 251 12.8 102820 49
2011-10-13 08:00 51°15.795 2°53.739 5.5 248 12.8 102830 48
2011-10-13 08:01 51°15.613 2°53.541 3.9 240 12.8 102840 49
2011-10-13 08:02 51°15.432 2°53.337 3.8 241 12.9 102830 47
2011-10-13 08:03 51°15.262 2°53.11 3.2 251 12.8 102840 48
2011-10-13 08:04 51°15.09 2°52.887 2.8 246 12.8 102840 47
2011-10-13 08:05 51°14.918 2°52.666 3.2 243 12.8 102840 48
2011-10-13 08:06 51°14.736 2°52.472 4.2 243 12.8 102840 49
2011-10-13 08:07 51°14.594 2°52.211 2 238 12.8 102850 49
2011-10-13 08:08 51°14.427 2°52.003 1.9 261 12.8 102840 48
2011-10-13 08:09 51°14.373 2°51.811 3.1 36 12.8 102840 48
2011-10-13 08:10 51°14.364 2°51.709 4.2 43 12.8 102840 47
2011-10-13 08:11 51°14.369 2°51.585 4.2 33 12.9 102830 49
2011-10-13 08:12 51°14.39 2°51.462 4.3 36 12.8 102830 49
2011-10-13 08:13 51°14.394 2°51.351 4.6 43 12.8 102830 49
2011-10-13 08:14 51°14.387 2°51.253 4.1 44 12.7 102830 49
2011-10-13 08:15 51°14.373 2°51.163 4.5 34 12.7 102830 48
2011-10-13 08:16 51°14.351 2°51.076 3.7 34 12.7 102830 47
2011-10-13 08:17 51°14.328 2°50.99 3.7 32 12.7 102840 48
2011-10-13 08:18 51°14.304 2°50.905 3.2 35 12.7 102840 49
2011-10-13 08:19 51°14.277 2°50.821 2.3 33 13.1 102850 50
2011-10-13 08:20 51°14.25 2°50.738 5.2 39 13.3 102850 50
2011-10-13 08:21 51°14.22 2°50.657 3.9 40 13.3 102840 47
2011-10-13 08:22 51°14.191 2°50.574 2.3 41 13.2 102840 47
2011-10-13 08:23 51°14.163 2°50.49 4 37 13.3 102840 47
2011-10-13 08:24 51°14.137 2°50.406 4.3 39 13.2 102840 46
2011-10-13 08:25 51°14.112 2°50.32 2.5 30 13.3 102840 47
2011-10-13 08:26 51°14.086 2°50.234 -999 35 13.2 102840 46
2011-10-13 08:27 51°14.059 2°50.148 0.1 35 13 102840 46
2011-10-13 08:28 51°14.037 2°50.062 4 37 13 102840 47
2011-10-13 08:29 51°14.018 2°49.974 2.6 31 13 102850 46
2011-10-13 08:30 51°13.999 2°49.887 3.7 38 13 102850 49
2011-10-13 08:31 51°13.979 2°49.798 3.8 34 13.3 102840 47
2011-10-13 08:32 51°13.959 2°49.709 3.3 32 13.4 102840 47
2011-10-13 08:33 51°13.937 2°49.62 5 40 13.3 102840 47
2011-10-13 08:34 51°13.912 2°49.531 3.4 32 13.2 102840 48
2011-10-13 08:35 51°13.891 2°49.443 4.8 40 13.2 102840 48
2011-10-13 08:36 51°13.871 2°49.353 3.4 39 13.1 102840 48
2011-10-13 08:37 51°13.85 2°49.265 2.8 34 13.3 102850 48
2011-10-13 08:38 51°13.831 2°49.176 2.4 40 13.5 102850 49
2011-10-13 08:39 51°13.81 2°49.089 3.6 32 13.8 102850 47
2011-10-13 08:40 51°13.788 2°49 4.4 38 13.7 102850 46
2011-10-13 08:41 51°13.765 2°48.912 3.2 34 13.5 102850 47
2011-10-13 08:42 51°13.75 2°48.822 5.1 32 13.4 102850 45
2011-10-13 08:43 51°13.745 2°48.737 7.1 40 13.3 102850 46
2011-10-13 08:44 51°13.748 2°48.655 5.2 40 13 102850 47
2011-10-13 08:45 51°13.756 2°48.58 5.6 25 13.1 102850 48
2011-10-13 08:46 51°13.796 2°48.502 5.7 17 12.9 102850 48
2011-10-13 08:47 51°13.826 2°48.456 6.5 13 12.9 102850 47
2011-10-13 08:48 51°13.841 2°48.423 6.8 10 12.9 102850 47
2011-10-13 08:49 51°13.857 2°48.386 6.6 18 13 102850 49
2011-10-13 08:50 51°13.884 2°48.263 2.8 51 13.1 102850 48
2011-10-13 08:51 51°13.803 2°48.066 3.1 261 13.2 102860 50
2011-10-13 08:52 51°13.671 2°47.814 2.1 256 13.1 102860 49
2011-10-13 08:53 51°13.546 2°47.52 3.1 304 13.2 102860 49
2011-10-13 08:54 51°13.428 2°47.216 4.5 257 13.3 102860 48
2011-10-13 08:55 51°13.314 2°46.908 2.8 266 13.3 102860 48
2011-10-13 08:56 51°13.177 2°46.623 3.3 259 13.3 102860 49
2011-10-13 08:57 51°13.05 2°46.328 3.3 262 13.3 102860 47
2011-10-13 08:58 51°12.912 2°46.048 3.1 310 13.3 102860 47
2011-10-13 08:59 51°12.806 2°45.737 2.1 254 13.3 102860 48
2011-10-13 09:00 51°12.701 2°45.428 3.2 301 13.4 102860 48
2011-10-13 09:01 51°12.604 2°45.116 3.2 256 13.4 102870 48
2011-10-13 09:02 51°12.501 2°44.807 2.7 303 13.4 102860 47
2011-10-13 09:03 51°12.404 2°44.495 1.6 262 13.4 102870 48
2011-10-13 09:04 51°12.317 2°44.175 0.5 306 13.5 102860 48
2011-10-13 09:05 51°12.237 2°43.849 2.6 303 13.6 102870 48
2011-10-13 09:06 51°12.158 2°43.521 2.8 251 13.7 102870 49
2011-10-13 09:07 51°12.071 2°43.198 2.2 303 13.7 102870 47
2011-10-13 09:08 51°11.945 2°42.908 3.4 247 13.7 102870 48
2011-10-13 09:09 51°11.794 2°42.652 5.7 246 13.8 102860 48
2011-10-13 09:10 51°11.655 2°42.378 5.5 250 13.8 102870 47
2011-10-13 09:11 51°11.511 2°42.111 6.3 249 13.8 102860 47
2011-10-13 09:12 51°11.372 2°41.838 5.1 310 13.7 102860 46
2011-10-13 09:13 51°11.241 2°41.552 3 267 13.8 102870 48
2011-10-13 09:14 51°11.1 2°41.281 4.2 255 13.8 102860 48
2011-10-13 09:15 51°10.955 2°41.015 4.7 252 13.8 102870 46
2011-10-13 09:16 51°10.798 2°40.764 4.6 250 13.8 102860 47
2011-10-13 09:17 51°10.646 2°40.506 4.2 252 13.8 102860 46
2011-10-13 09:18 51°10.499 2°40.238 6.8 303 13.9 102860 47
2011-10-13 09:19 51°10.344 2°39.979 5.1 303 13.9 102860 47
2011-10-13 09:20 51°10.194 2°39.714 6.1 306 13.8 102860 46
2011-10-13 09:21 51°10.047 2°39.442 4.4 307 13.8 102860 47
2011-10-13 09:22 51°9.918 2°39.153 3.1 251 13.8 102860 47
2011-10-13 09:23 51°9.797 2°38.856 5.3 302 14 102860 48
2011-10-13 09:24 51°9.68 2°38.555 5 253 13.9 102870 46
2011-10-13 09:25 51°9.576 2°38.243 2.7 307 13.9 102870 46
2011-10-13 09:26 51°9.46 2°37.944 4.2 240 13.9 102870 46
2011-10-13 09:27 51°9.367 2°37.632 2.2 255 13.9 102880 48
2011-10-13 09:28 51°9.372 2°37.286 0.5 334 14 102870 47
2011-10-13 09:29 51°9.422 2°36.946 0.6 353 14 102870 47
2011-10-13 09:30 51°9.402 2°36.628 1.8 264 14 102880 47
2011-10-13 09:31 51°9.351 2°36.506 5.4 254 13.9 102870 46
2011-10-13 09:32 51°9.33 2°36.467 5.7 260 13.8 102870 46
2011-10-13 09:33 51°9.317 2°36.431 5 255 13.9 102880 48
2011-10-13 09:34 51°9.305 2°36.395 4.9 255 14 102880 47
2011-10-13 09:35 51°9.294 2°36.358 6.1 254 14.1 102880 48
2011-10-13 09:36 51°9.282 2°36.32 5.3 255 14.1 102880 48
2011-10-13 09:37 51°9.271 2°36.282 8.1 250 14.1 102880 47
2011-10-13 09:38 51°9.248 2°36.242 6.4 242 14 102890 47
2011-10-13 09:39 51°9.152 2°36.291 10 321 13.9 102870 46
2011-10-13 09:40 51°9.067 2°36.501 8.2 322 13.8 102850 46
2011-10-13 09:41 51°8.989 2°36.6 7 309 13.7 102860 46
2011-10-13 09:42 51°8.957 2°36.594 3.3 267 13.7 102880 46
2011-10-13 09:43 51°8.954 2°36.576 4.6 38 13.6 102880 48
2011-10-13 09:44 51°8.949 2°36.558 4.2 270 13.7 102880 47
2011-10-13 09:45 51°8.942 2°36.539 3.4 307 13.7 102880 47
2011-10-13 09:46 51°8.935 2°36.518 4.6 267 13.7 102880 46
2011-10-13 09:47 51°8.927 2°36.496 5 304 13.7 102870 48
2011-10-13 09:48 51°8.916 2°36.467 3.6 307 13.7 102880 47
2011-10-13 09:49 51°8.906 2°36.428 5.5 51 13.9 102880 49
2011-10-13 09:50 51°8.901 2°36.39 3.9 52 13.9 102880 48
2011-10-13 09:51 51°8.903 2°36.344 5.5 34 13.7 102850 47
2011-10-13 09:52 51°8.901 2°36.305 7.1 36 13.8 102860 47
2011-10-13 09:53 51°8.896 2°36.27 4.5 57 13.9 102870 48
2011-10-13 09:54 51°8.894 2°36.237 4.2 43 13.8 102870 46
2011-10-13 09:55 51°8.9 2°36.2 4.6 35 13.7 102870 48
2011-10-13 09:56 51°8.956 2°36.12 4.4 11 13.6 102870 48
2011-10-13 09:57 51°9.102 2°35.952 6 358 13.6 102870 47
2011-10-13 09:58 51°9.271 2°35.775 5.5 359 13.5 102860 46
2011-10-13 09:59 51°9.436 2°35.583 3.8 359 13.4 102870 47
2011-10-13 10:00 51°9.602 2°35.398 4.4 5 13.4 102870 48
2011-10-13 10:01 51°9.772 2°35.225 6.8 360 13.4 102870 47
2011-10-13 10:02 51°9.936 2°35.04 4.8 3 13.4 102870 48
2011-10-13 10:03 51°10.102 2°34.872 4 2 13.3 102870 47
2011-10-13 10:04 51°10.263 2°34.705 6 14 13.4 102880 47
2011-10-13 10:05 51°10.309 2°34.574 2.9 58 13.4 102880 47
2011-10-13 10:06 51°10.275 2°34.497 6 303 13.6 102890 48
2011-10-13 10:07 51°10.268 2°34.487 5.8 56 13.6 102890 47
2011-10-13 10:08 51°10.264 2°34.48 5.5 53 13.7 102890 47
2011-10-13 10:09 51°10.257 2°34.471 5.8 51 13.8 102880 47
2011-10-13 10:10 51°10.25 2°34.459 4.8 308 13.7 102880 46
2011-10-13 10:11 51°10.242 2°34.446 4.4 310 13.8 102880 47
2011-10-13 10:12 51°10.233 2°34.434 6.2 310 13.8 102880 46
2011-10-13 10:13 51°10.224 2°34.423 5.4 309 13.9 102880 47
2011-10-13 10:14 51°10.214 2°34.412 6.8 310 14 102880 47
2011-10-13 10:15 51°10.204 2°34.401 5.3 310 14 102880 46
2011-10-13 10:16 51°10.193 2°34.392 6.1 310 14.1 102880 46
2011-10-13 10:17 51°10.183 2°34.383 6.8 308 14.1 102870 46
2011-10-13 10:18 51°10.173 2°34.374 7.3 306 14.2 102880 46
2011-10-13 10:19 51°10.163 2°34.365 5.8 302 14.2 102880 45
2011-10-13 10:20 51°10.154 2°34.357 5.2 301 14.2 102880 46
2011-10-13 10:21 51°10.144 2°34.349 5.6 309 14.3 102880 46
2011-10-13 10:22 51°10.134 2°34.342 6.1 303 14.3 102880 46
2011-10-13 10:23 51°10.125 2°34.334 7.5 302 14.3 102880 45
2011-10-13 10:24 51°10.115 2°34.328 5.9 307 14.3 102880 45
2011-10-13 10:25 51°10.106 2°34.321 5.4 305 14.3 102880 45
2011-10-13 10:26 51°10.098 2°34.314 6.3 305 14.3 102880 46
2011-10-13 10:27 51°10.088 2°34.309 5.8 309 14.4 102890 45
2011-10-13 10:28 51°10.078 2°34.305 6.3 305 14.3 102880 44
2011-10-13 10:29 51°10.06 2°34.305 6.3 304 14.3 102880 45
2011-10-13 10:30 51°10.026 2°34.342 7.2 302 14.3 102880 44
2011-10-13 10:31 51°9.997 2°34.454 8.3 303 14.2 102870 45
2011-10-13 10:32 51°9.955 2°34.631 9.4 301 14.2 102870 45
2011-10-13 10:33 51°9.932 2°34.853 9.4 331 14.1 102880 44
2011-10-13 10:34 51°9.914 2°35.085 9.6 332 14.1 102880 44
2011-10-13 10:35 51°9.893 2°35.318 8.7 332 14.1 102880 44
2011-10-13 10:36 51°9.868 2°35.55 9.7 334 14.1 102880 44
2011-10-13 10:37 51°9.844 2°35.782 9.8 334 14.1 102880 45
2011-10-13 10:38 51°9.835 2°36.016 9.8 335 14.1 102880 44
2011-10-13 10:39 51°9.867 2°36.242 9.8 340 14.1 102880 45
2011-10-13 10:40 51°9.902 2°36.47 9.6 338 14.1 102880 45
2011-10-13 10:41 51°9.935 2°36.701 9.6 337 14.2 102880 46
2011-10-13 10:42 51°9.964 2°36.933 9.3 335 14.1 102880 44
2011-10-13 10:43 51°9.987 2°37.168 8.2 336 14.2 102880 45
2011-10-13 10:44 51°10.011 2°37.403 9.5 335 14.2 102880 44
2011-10-13 10:45 51°10.055 2°37.702 11.5 340 14.2 102880 44
2011-10-13 10:46 51°10.14 2°38.007 9.9 340 14.3 102880 45
2011-10-13 10:47 51°10.239 2°38.302 10.7 340 14.3 102880 45
2011-10-13 10:48 51°10.326 2°38.608 13 337 14.2 102890 45
2011-10-13 10:49 51°10.409 2°38.917 10.5 339 14.2 102880 46
2011-10-13 10:50 51°10.503 2°39.219 13 339 14.2 102880 46
2011-10-13 10:51 51°10.604 2°39.515 12.5 339 14.2 102880 45
2011-10-13 10:52 51°10.715 2°39.802 13.1 342 14.2 102880 45
2011-10-13 10:53 51°10.818 2°40.097 11.9 342 14.2 102890 46
2011-10-13 10:54 51°10.923 2°40.392 9.3 343 14.2 102880 46
2011-10-13 10:55 51°11.036 2°40.68 13.7 339 14.3 102890 47
2011-10-13 10:56 51°11.123 2°40.992 12 335 14.3 102890 47
2011-10-13 10:57 51°11.219 2°41.296 10.1 341 14.2 102890 46
2011-10-13 10:58 51°11.315 2°41.601 11.8 338 14.2 102900 47
2011-10-13 10:59 51°11.4 2°41.912 10.4 338 14.1 102880 46
2011-10-13 11:00 51°11.496 2°42.218 10 340 14.2 102880 47
2011-10-13 11:01 51°11.559 2°42.546 13.2 334 14.2 102890 46
2011-10-13 11:02 51°11.61 2°42.879 13.6 333 14.1 102890 46
2011-10-13 11:03 51°11.649 2°43.218 11.2 334 14.1 102900 46
2011-10-13 11:04 51°11.677 2°43.562 11.2 334 14.1 102890 46
2011-10-13 11:05 51°11.711 2°43.906 12 336 14.1 102900 45
2011-10-13 11:06 51°11.746 2°44.249 10.6 331 14.2 102890 45
2011-10-13 11:07 51°11.73 2°44.597 11.9 328 14.1 102900 44
2011-10-13 11:08 51°11.709 2°44.946 15.2 330 14.2 102890 43
2011-10-13 11:09 51°11.734 2°45.293 12.2 335 14.1 102890 43
2011-10-13 11:10 51°11.797 2°45.631 10.6 335 14.2 102910 44
2011-10-13 11:11 51°11.852 2°45.974 12.5 335 14.2 102890 45
2011-10-13 11:12 51°11.89 2°46.303 9.2 335 14.2 102900 44
2011-10-13 11:13 51°11.919 2°46.541 10.1 338 14.2 102900 44
2011-10-13 11:14 51°11.956 2°46.751 7.8 337 14.2 102900 44
2011-10-13 11:15 51°11.997 2°46.941 7.8 337 14.1 102900 44
2011-10-13 11:16 51°12.031 2°47.127 7.4 336 14.2 102900 44
2011-10-13 11:17 51°12.063 2°47.313 7.5 335 14.2 102890 44
2011-10-13 11:18 51°12.096 2°47.497 8.8 334 14.3 102890 46
2011-10-13 11:19 51°12.133 2°47.677 7.8 335 14.3 102890 45
2011-10-13 11:20 51°12.171 2°47.856 11.1 337 14.2 102890 45
2011-10-13 11:21 51°12.204 2°48.037 8.7 334 14.2 102880 43
2011-10-13 11:22 51°12.238 2°48.218 7.7 335 14.2 102890 43
2011-10-13 11:23 51°12.291 2°48.384 9.4 344 14.2 102890 43
2011-10-13 11:24 51°12.368 2°48.53 8.6 340 14.2 102890 43
2011-10-13 11:25 51°12.448 2°48.676 7.2 338 14.2 102890 42
2011-10-13 11:26 51°12.525 2°48.829 7.2 342 14.2 102890 43
2011-10-13 11:27 51°12.584 2°49.002 7.6 341 14.2 102890 44
2011-10-13 11:28 51°12.632 2°49.185 9.9 337 14.3 102890 44
2011-10-13 11:29 51°12.683 2°49.366 9 339 14.3 102890 42
2011-10-13 11:30 51°12.736 2°49.547 8.1 344 14.2 102890 43
2011-10-13 11:31 51°12.795 2°49.725 7.5 340 14.2 102900 43
2011-10-13 11:32 51°12.854 2°49.902 8.6 338 14.2 102890 43
2011-10-13 11:33 51°12.877 2°50.013 5.9 307 14.2 102900 41
2011-10-13 11:34 51°12.891 2°50.047 6.3 310 14.3 102900 44
2011-10-13 11:35 51°12.904 2°50.074 5.9 308 14.4 102900 43
2011-10-13 11:36 51°12.916 2°50.1 4.8 304 14.4 102900 43
2011-10-13 11:37 51°12.927 2°50.127 3.6 308 14.3 102900 44
2011-10-13 11:38 51°12.938 2°50.156 3.9 309 14.3 102900 42
2011-10-13 11:39 51°12.949 2°50.183 5.5 309 14.4 102900 44
2011-10-13 11:40 51°12.959 2°50.212 5.7 301 14.4 102900 44
2011-10-13 11:41 51°12.97 2°50.241 6.4 309 14.3 102900 43
2011-10-13 11:42 51°12.927 2°50.251 4.5 304 14.4 102900 43
2011-10-13 11:43 51°12.777 2°50.201 6.4 302 14.4 102900 43
2011-10-13 11:44 51°12.619 2°50.132 6.6 302 14.5 102900 43
2011-10-13 11:45 51°12.489 2°50.032 4.2 309 14.5 102900 43
2011-10-13 11:46 51°12.396 2°49.956 3.2 303 14.5 102900 43
2011-10-13 11:47 51°12.315 2°49.869 4.1 259 14.5 102900 43
2011-10-13 11:48 51°12.236 2°49.807 5.2 258 14.5 102900 42
2011-10-13 11:49 51°12.19 2°49.8 4.1 265 14.5 102900 42
2011-10-13 11:50 51°12.174 2°49.83 7 263 14.6 102900 41
2011-10-13 11:51 51°12.185 2°49.859 7.6 263 14.5 102890 39
2011-10-13 11:52 51°12.198 2°49.884 6.6 260 14.5 102890 39
2011-10-13 11:53 51°12.211 2°49.91 7 261 14.5 102890 39
2011-10-13 11:54 51°12.246 2°49.94 5.9 267 14.5 102890 39
2011-10-13 11:55 51°12.278 2°49.977 7.6 38 14.5 102890 39
2011-10-13 11:56 51°12.297 2°50.006 6.4 38 14.4 102900 39
2011-10-13 11:57 51°12.309 2°50.023 7.8 36 14.5 102890 41
2011-10-13 11:58 51°12.321 2°50.002 6.9 41 14.4 102900 39
2011-10-13 11:59 51°12.382 2°49.994 6.6 3 14.4 102880 39
2011-10-13 12:00 51°12.466 2°50.104 9.6 345 14.4 102880 40
2011-10-13 12:01 51°12.582 2°50.304 13.7 341 14.4 102870 41
2011-10-13 12:02 51°12.709 2°50.576 14.6 341 14.3 102870 40
2011-10-13 12:03 51°12.85 2°50.868 13.8 342 14.4 102870 41
2011-10-13 12:04 51°13.003 2°51.146 14.5 341 14.4 102880 41
2011-10-13 12:05 51°13.141 2°51.446 17 335 14.4 102880 42
2011-10-13 12:06 51°13.268 2°51.758 10.8 337 14.4 102880 42
2011-10-13 12:07 51°13.404 2°52.058 12.2 342 14.4 102880 42
2011-10-13 12:08 51°13.549 2°52.347 11.8 336 14.4 102890 44
2011-10-13 12:09 51°13.693 2°52.639 13.1 334 14.4 102890 42
2011-10-13 12:10 51°13.832 2°52.941 6.9 338 14.4 102890 42
2011-10-13 12:11 51°13.979 2°53.229 7.2 338 14.4 102880 42
2011-10-13 12:12 51°14.121 2°53.526 10.6 338 14.4 102890 41
2011-10-13 12:13 51°14.268 2°53.815 15.4 336 14.5 102890 41
2011-10-13 12:14 51°14.412 2°54.11 4.7 338 14.4 102890 41
2011-10-13 12:15 51°14.547 2°54.414 12.7 331 14.5 102890 41
2011-10-13 12:16 51°14.604 2°54.758 13.3 317 14.5 102890 41
2011-10-13 12:17 51°14.503 2°55.044 8.7 37 14.4 102880 40
2011-10-13 12:18 51°14.358 2°55.196 7.5 235 14.5 102890 40
2011-10-13 12:19 51°14.24 2°55.313 7 235 14.5 102900 41
2011-10-13 12:20 51°14.125 2°55.418 6.8 34 14.6 102910 41
2011-10-13 12:21 51°14.002 2°55.503 6.4 39 14.6 102910 40
2011-10-13 12:22 51°13.889 2°55.583 5.3 235 14.7 102910 41
2011-10-13 12:23 51°13.794 2°55.664 6.2 38 14.8 102920 40
2011-10-13 12:24 51°13.728 2°55.76 7.2 32 14.8 102910 39
2011-10-13 12:25 51°13.681 2°55.854 6 315 14.9 102910 40
2011-10-13 12:26 51°13.652 2°55.938 8.3 316 14.9 102910 39
2011-10-13 12:27 51°13.639 2°56.007 5.8 242 14.8 102920 40